Regional Weather Roundup
Issued by NWS

Home | Current Version | Previous Version | Graphics & Text | Print | Product List | Glossary On
Versions: 1 2 3 4 5 6 7 8 9 10 11 12 13 14 15 16 17 18 19 20 21 22 23 24 25 26 27 28 29 30 31 32 33 34 35 36 37 38 39 40 41 42 43 44 45 46 47 48 49 50
000
ASUS43 KIND 202109
RWRIN

WEATHER ROUNDUP FOR INDIANA
NATIONAL WEATHER SERVICE INDIANAPOLIS IN
500 PM EDT SUN APR 20 2014

NOTE: "FAIR" INDICATES FEW OR NO CLOUDS BELOW 12,000 FEET WITH NO
SIGNIFICANT WEATHER AND/OR OBSTRUCTIONS TO VISIBILITY.

* - STATION DOES NOT REPORT WEATHER SUCH AS PRECIPITATION OR FOG.

+ - STATION NOT QUALITY CONTROLLED BY THE NATIONAL WEATHER SERVICE.
    USE DATA WITH CAUTION...ESPECIALLY DEWPOINT AND RELATIVE
    HUMIDITY OBSERVATIONS.

INZ001>003-010>013-019-020-202200-
NORTHWEST INDIANA

CITY           SKY/WX    TMP DP  RH WIND       PRES   REMARKS
GARY /AIRPORT/ PTSUNNY   77  36  22 S8        30.11F
LA PORTE +     PTSUNNY   73  34  24 SW7       30.14F
MICHIGAN CITY+ PTSUNNY   75  32  20 S8        30.12F
MONTICELLO +   PTSUNNY   73  36  25 CALM      30.14F
RENSSELAER +   PTSUNNY   75  32  20 S7        30.13F
VALPARAISO     PTSUNNY   75  35  23 VRB6      30.13F

$$

LMZ046-743>745-202200-
SOUTHERN LAKE MICHIGAN

STATION/POSITION TIME  TEMP WIND        PRES
                       AIR  DIR/SP/G
                 (UTC) (F)  (DEG/KT/KT) (MB)
MICHIGAN CITY    2100   58   40/ 10/ 10   N/A

$$

INZ004-005-014>016-021>024-202200-
NORTH CENTRAL INDIANA

CITY           SKY/WX    TMP DP  RH WIND       PRES   REMARKS
ELKHART        SUNNY     73  27  17 S8        30.15
GOSHEN         SUNNY     73  31  21 VRB5      30.14F
LOGANSPORT +   PTSUNNY   72  25  17 SW3       30.15F
PERU/GRISSOM   PTSUNNY   74  32  21 S6        30.15F
ROCHESTER +    MOSUNNY   73  30  20 S6        30.15F
SOUTH BEND     MOSUNNY   74  32  21 VRB7      30.15F
WARSAW +       MOSUNNY   72  32  23 S6        30.15F

$$

INZ006>009-017-018-025>027-202200-
NORTHEAST INDIANA

CITY           SKY/WX    TMP DP  RH WIND       PRES   REMARKS
ANGOLA *+      SUNNY     72  30  21 VRB3      30.16F
AUBURN +       SUNNY     72  30  21 S5        30.17F
FORT WAYNE     PTSUNNY   74  33  22 S9        30.16F

$$

INZ028-029-035-036-043>045-051>053-202200-
WEST CENTRAL INDIANA

CITY           SKY/WX    TMP DP  RH WIND       PRES   REMARKS
GREENCASTLE +  PTSUNNY   72  37  28 CALM      30.14F
LAFAYETTE      MOSUNNY   74  36  25 VRB3      30.13F
TERRE HAUTE    PTSUNNY   74  40  29 MISG      30.14F

$$

INZ030>032-037>040-046>048-054>057-064-065-202200-
CENTRAL INDIANA

CITY           SKY/WX    TMP DP  RH WIND       PRES   REMARKS
CP ATTERBURY + MOSUNNY   73  36  25 SE12      30.14F
COLUMBUS       SUNNY     73  36  25 S8        30.15F
INDIANAPOLIS   MOSUNNY   71  35  26 SW6       30.14F
-EAGLE CREEK   MOSUNNY   74  33  22 SE3       30.14F
KOKOMO *+        N/A     73  32  21 S5        30.15F
MARION +       PTSUNNY   72  31  22 SW8       30.16F
MT COMFORT *+  SUNNY     75  37  25 S7        30.16S
SHELBYVILLE    SUNNY     75  37  25 S7        30.14F
ZIONSVILLE +   MOSUNNY   74  24  15 S5        30.15F

$$

INZ033-034-041-042-049-050-058-059-202200-
EAST CENTRAL INDIANA

CITY           SKY/WX    TMP DP  RH WIND       PRES   REMARKS
MUNCIE         PTSUNNY   73  33  23 VRB3      30.15F

$$

INZ060-061-067>069-081>083-085>088-202200-
SOUTHWEST INDIANA

CITY           SKY/WX    TMP DP  RH WIND       PRES   REMARKS
EVANSVILLE     PTSUNNY   76  35  22 VRB3      30.14F
HUNTINGBURG *+ CLOUDY    75  36  23 CALM      30.14F
WASHINGTON +   PTSUNNY   75  38  26 N3        30.14F

$$

INZ062-063-066-070>080-084-089>092-202200-
SOUTH CENTRAL AND SOUTHEAST INDIANA

CITY           SKY/WX    TMP DP  RH WIND       PRES   REMARKS
BLOOMINGTON    CLOUDY    75  29  18 E7        30.14F
NORTH VERNON + SUNNY     75  32  20 CALM      30.15
SEYMOUR +      MOSUNNY   72  19  14 SE5       30.14

$$




USA.gov is the U.S. government's official web portal to all federal, state and local government web resources and services.